Content
SEND FEEDBACK

Daily
Averages
Monthly
Summary
United States of America

ST. LOUIS, MISSOURI


Home > North America > United States > Missouri
Elevation: 163 meters     Latitude: 38 45N     Longitude: 090 22W

WEATHER
 
SELECT A DAY
Number of Records: 201,199;   Date Range: 1/1/95 - 12/17/14
 
SHARE

PRINT THIS DATA

[ ← Previous Day ]
WEATHER ALMANAC - 21 SEPTEMBER, 2013
[ Next Day → ]
[ °F ]   °C
Weather ElementAverageHighLow
Temperature15.6 °C22.8 °C (3:54 pm)10 °C (6:54 am)
Dewpoint9.3 °C11.1 °C (1:54 am)7.8 °C (1:54 pm)
Humidity70.9 %97 % (9:54 pm)38 % (3:54 pm)
Barometer1013.5 hPa1015.2 hPa (10:54 am)1012.5 hPa (4:54 pm)
Wind Speed8.4 km/h20.4 km/h (10:54 am)
Weather ElementAverage
Visibility15.9 km
Wind DirectionSSE (170 °)

Weather ElementTotal
Precipitation---
Heating Degree Days1.9 (Base 18.3)
Growing Degree Days6.4 (Base 10)
Averaged from 23 records on 21 September, 2013
WEATHER CONDITIONS BREAKOUT
WIND DIRECTION BREAKOUT
WEATHER BY HOUR - 21 SEPTEMBER, 2013
[ °F ]   °C
Local TimeTemperatureDewpointHumidityBarometerVisibilityWind DirectionWind SpeedGust SpeedPrecipitationEventsConditions
1:54 AM12.2 °C11.1 °C93 %1012.9 hPa16.1 kmWSW (240°)7.4 km/hClear
2:54 AM11.1 °C10 °C93 %1012.9 hPa16.1 kmWSW (240°)5.6 km/hClear
3:54 AM11.1 °C10 °C93 %1012.9 hPa16.1 kmWSW (250°)5.6 km/hClear
4:54 AM11.1 °C10 °C93 %1013.2 hPa16.1 kmWSW (250°)5.6 km/hClear
5:54 AM11.1 °C10 °C93 %1013.5 hPa16.1 kmWSW (240°)5.6 km/hClear
6:54 AM10 °C9.4 °C96 %1013.9 hPa16.1 kmWest (270°)5.6 km/hPartly Cloudy
7:54 AM12.8 °C10.6 °C86 %1014.6 hPa16.1 kmWNW (300°)7.4 km/hClear
8:54 AM15 °C10 °C72 %1014.6 hPa16.1 kmNNW (330°)11.1 km/hClear
9:54 AM16.7 °C9.4 °C62 %1014.9 hPa16.1 kmCalmClear
10:54 AM18.3 °C8.3 °C52 %1015.2 hPa16.1 kmNNE (20°)20.4 km/hClear
11:54 AM19.4 °C8.3 °C49 %1014.9 hPa16.1 kmNNW (340°)13 km/hScattered Clouds
12:54 PM20.6 °C8.9 °C47 %1014.6 hPa16.1 kmNNW (340°)14.8 km/hPartly Cloudy
1:54 PM21.1 °C7.8 °C42 %1013.9 hPa16.1 kmNorth (10°)18.5 km/hClear
2:54 PM22.2 °C7.8 °C40 %1013.2 hPa16.1 kmNorth (350°)20.4 km/hClear
3:54 PM22.8 °C7.8 °C38 %1012.9 hPa16.1 kmNNW (330°)16.7 km/hPartly Cloudy
4:54 PM22.8 °C7.8 °C38 %1012.5 hPa16.1 kmNNW (340°)16.7 km/hClear
5:54 PM21.7 °C8.3 °C42 %1012.9 hPa16.1 kmNNE (30°)11.1 km/hClear
6:54 PM19.4 °C8.9 °C51 %1012.9 hPa16.1 kmNNE (30°)5.6 km/hClear
7:54 PM13.3 °C10.6 °C84 %1013.2 hPa16.1 kmCalmClear
8:54 PM12.8 °C10.6 °C86 %1013.5 hPa16.1 kmCalmClear
9:54 PM11.1 °C10.6 °C97 %1013.9 hPa16.1 kmCalmClear
10:54 PM10.6 °C9.4 °C92 %1014.2 hPa16.1 kmCalmClear
11:54 PM10.6 °C9.4 °C92 %1014.2 hPa12.9 kmCalmClear
Hourly data recorded from KSUS, located 0 kilometers away from St. Louis, Missouri







STORIES FROM OUR PARTNERS